星链-30064 (STARLINK-30064 )

导读

STARLINK-30064是美国太空探索技术公司星链星座的一员,于2023年2月27日发射入轨,属于星链网络扩容任务的一部分。星链星座旨在构建全球卫星互联网,为全球偏远地区等提供高速网络接入服务,该卫星的入轨进一步扩大了星链星座的覆盖规模与服务能力。

基本信息
目录编号:
55700
目录名称:
STARLINK-30064
国际标识:
2023-026F
轨道中心:
EARTH
卫星名称:
星链-30064
卫星全名:
星链-30064 (STARLINK-30064 )
卫星状态:
已陨落 最后检测时间 2024-08-16
发射日期:
2023-02-27 UTC
国别 :
美国 (US)
星等 :
--
该卫星已列入 空间交会检测服务 Space Conjunction Data Service (SCDS) ,当前飞行风险评估等级: 无高风险
轨道信息
数据来源 国际轨道数据
星历时间: 2024-08-16T07:35:31+0800
轨道信息已过期757天
半长轴: 6592.618km
偏心率: 0.0027316
轨道倾角: 42.997°
近地点辐角 17.585°
升交点赤经 295.989°
平近点角 112.631°
近地点: 196.474km
远地点: 232.492km
周期: 88.786分钟
每日圈数: 16.218697
详细信息
固有亮度:
5
最大亮度:
0.4
卫星平台:
Starlink v2.0 mini
覆盖范围:
全球
运营商:
太空探索技术公司
运营商所在国:
美国
制造商(研发单位):
太空探索技术公司
制造商所在国:
美国
使用方式:
暂无
卫星简介
星链(Starlink)计划是由太空探索技术公司(SpaceX)提出的一个巨型低轨卫星互联网星座项目,计划在2019年至2024年间在太空搭建由约1.2万颗卫星组成的“星链”网络,其中1584颗将部署在地球上空550千米处的近地轨道,并从2020年开始工作。该卫星仍在工作。
与全量物体交会距离演化趋势
与全量物体交会风险概率演化趋势